This demonstration page uses our WeatherBlox Daily Observations layout. Learn more.

Left ArrowRight Arrow

39.95238, -75.16362

Hourly Observations for May 22, 2015

Temp ( °F °C ) Dew Point ( °F °C ) Humidity (%) Winds ( mph kmh ) Pressure ( in mb ) Visibility ( mi km ) Precip ( " mm )
12:54 am 00:54 Cloudy 54 12.2 47 8.3 77 77 WSW 6 9 29.91 1013 10 16 0.00 0.00
1:54 am 01:54 Cloudy 53 11.7 46 7.8 77 77 W 7 11 29.91 1013 10 16 0.00 0.00
2:54 am 02:54 Mostly Cloudy 53 11.7 47 8.3 80 80 W 6 9 29.90 1013 10 16 0.00 0.00
3:54 am 03:54 Mostly Clear 53 11.7 46 7.8 77 77 NW 8 13 29.90 1013 10 16 0.00 0.00
4:54 am 04:54 Mostly Clear 53 11.7 45 7.2 74 74 WNW 8 13 29.93 1014 10 16 0.00 0.00
5:54 am 05:54 Sunny 53 11.7 44 6.7 72 72 W 9 15 29.95 1014 10 16 0.00 0.00
6:54 am 06:54 Sunny 53 11.7 44 6.7 72 72 WNW 10 17 29.97 1015 10 16 0.00 0.00
7:54 am 07:54 Sunny 56 13.3 43 6.1 62 62 W 9 15 29.98 1015 10 16 0.00 0.00
8:54 am 08:54 Sunny 61 16.1 42 5.6 50 50 NW 12 19 29.99 1016 10 16 0.00 0.00
9:54 am 09:54 Sunny 64 17.8 41 5 43 43 WNW 14 22 30.00 1016 10 16 0.00 0.00
10:54 am 10:54 Sunny 68 20 41 5 38 38 W 14 22 30.00 1016 10 16 0.00 0.00
11:54 am 11:54 Mostly Sunny 72 22.2 38 3.3 29 29 WNW 18 30 30.01 1016 10 16 0.00 0.00
12:54 pm 12:54 Mostly Sunny 73 22.8 39 3.9 29 29 WNW 22 35 30.00 1016 10 16 0.00 0.00
1:54 pm 13:54 Partly Cloudy 74 23.3 41 5 31 31 W 17 28 29.99 1016 10 16 0.00 0.00
2:54 pm 14:54 Mostly Cloudy 74 23.3 40 4.4 29 29 W 18 30 30.00 1016 10 16 0.00 0.00
3:54 pm 15:54 Mostly Cloudy 75 23.9 39 3.9 27 27 W 21 33 29.99 1016 10 16 0.00 0.00
4:54 pm 16:54 Mostly Cloudy 76 24.4 39 3.9 26 26 W 22 35 29.99 1016 10 16 0.00 0.00
5:54 pm 17:54 Partly Cloudy 77 25 36 2.2 23 23 W 25 41 30.00 1016 10 16 0.00 0.00
6:54 pm 18:54 Partly Cloudy 74 23.3 37 2.8 26 26 W 17 28 30.01 1016 10 16 0.00 0.00
7:54 pm 19:54 Mostly Sunny 73 22.8 39 3.9 29 29 W 13 20 30.04 1017 10 16 0.00 0.00
8:54 pm 20:54 Mostly Clear 71 21.7 40 4.4 32 32 W 12 19 30.08 1019 10 16 0.00 0.00
9:54 pm 21:54 Clear 69 20.6 35 1.7 29 29 W 10 17 30.11 1020 10 16 0.00 0.00
10:54 pm 22:54 Clear 68 20 25 -3.9 20 20 NW 16 26 30.15 1021 10 16 0.00 0.00
11:54 pm 23:54 Clear 66 18.9 21 -6.1 18 18 WNW 12 19 30.18 1022 10 16 0.00 0.00

Powered by AerisWeather